Creston, IA

3:08 AM CST on February 13, 2016 (GMT -0600)
Creston Municipal

Weather History for KCSQ - January, 2014

Change the Weather History Date:

Friday, January 3, 2014

  Actual Average Record
Temperature  
Mean Temperature 12 °F -  
Max Temperature 32 °F 30 °F 57 °F (1998)
Min Temperature -9 °F 13 °F -13 °F (1968)
Degree Days  
Heating Degree Days 54    
Moisture  
Dew Point 7 °F    
Average Humidity 70    
Maximum Humidity 77    
Minimum Humidity 61    
Precipitation  
Precipitation 0.00 in - - ()
Sea Level Pressure  
Sea Level Pressure 29.97 in    
Wind  
Wind Speed 14 mph (South)    
Max Wind Speed 30 mph    
Max Gust Speed 38 mph    
Visibility 10 miles    
Events      
Averages and records for this station are not official NWS values.
T = Trace of Precipitation, MM = Missing Value Source: NWS Daily Summary

Daily Weather History Graph

Daily Weather History Graph

Search for Another Location

Airport or City:

Trip Planner

Search our weather history database for the weather conditions in past years. The results will help you decide how hot, cold, wet, or windy it might be!

Date:

Astronomy

Jan. 03, 2014 Rise Set
Actual Time 7:42 AM CST 5:01 PM CST
Civil Twilight 7:11 AM CST 5:32 PM CST
Nautical Twilight 6:37 AM CST 6:07 PM CST
Astronomical Twilight 6:03 AM CST 6:40 PM CST
Moon 9:07 AM CST (1/3) 8:13 PM CST (1/3)
Length of Visible Light 10h 20m
Length of Day
9h 19m
Waxing Crescent, 8% of the Moon is Illuminated
Jan 3
Waxing Crescent
Jan 7
First Quarter
Jan 15
Full
Jan 23
Last Quarter
Jan 30
New

Hourly Weather History & Observations

Time (CST) Temp. Windchill Dew Point Humidity Pressure Visibility Wind Dir Wind Speed Gust Speed Precip Events Conditions
12:15 AM -7.6 °F - -14.8 °F 71% 30.39 in 10.0 mi Calm Calm - N/A   Clear
12:35 AM -7.6 °F - -13.0 °F 77% 30.38 in 10.0 mi Calm Calm - N/A   Clear
12:55 AM -9.4 °F -20.9 °F -16.6 °F 71% 30.37 in 10.0 mi SSE 4.6 mph - N/A   Clear
1:15 AM -9.4 °F -20.9 °F -14.8 °F 77% 30.37 in 10.0 mi SE 4.6 mph - N/A   Clear
1:35 AM -9.4 °F -20.9 °F -16.6 °F 71% 30.36 in 10.0 mi SE 4.6 mph - N/A   Clear
1:55 AM -9.4 °F -22.7 °F -16.6 °F 71% 30.35 in 10.0 mi SSE 5.8 mph - N/A   Clear
2:15 AM -7.6 °F -22.1 °F -13.0 °F 77% 30.34 in 10.0 mi South 6.9 mph - N/A   Clear
2:35 AM -4.0 °F -19.0 °F -11.2 °F 71% 30.33 in 10.0 mi South 8.1 mph - N/A   Clear
2:55 AM -4.0 °F -19.0 °F -11.2 °F 71% 30.33 in 10.0 mi South 8.1 mph - N/A   Clear
3:15 AM -2.2 °F -18.0 °F -11.2 °F 66% 30.31 in 10.0 mi South 9.2 mph - N/A   Clear
3:35 AM -2.2 °F -18.0 °F -9.4 °F 71% 30.30 in 10.0 mi SSE 9.2 mph - N/A   Clear
3:55 AM -0.4 °F -16.7 °F -7.6 °F 72% 30.29 in 10.0 mi South 10.4 mph - N/A   Clear
4:15 AM -0.4 °F -19.9 °F -7.6 °F 72% 30.28 in 10.0 mi South 15.0 mph - N/A   Clear
4:35 AM 1.4 °F -16.1 °F -7.6 °F 66% 30.28 in 10.0 mi South 12.7 mph - N/A   Clear
4:55 AM -0.4 °F -16.7 °F -7.6 °F 72% 30.28 in 10.0 mi South 10.4 mph - N/A   Clear
5:15 AM -0.4 °F -19.9 °F -7.6 °F 72% 30.28 in 10.0 mi South 15.0 mph - N/A   Clear
5:35 AM -0.4 °F -19.2 °F -7.6 °F 72% 30.26 in 10.0 mi South 13.8 mph - N/A   Scattered Clouds
5:55 AM -0.4 °F -21.7 °F -7.6 °F 72% 30.24 in 10.0 mi South 18.4 mph - N/A   Overcast
6:15 AM -0.4 °F -20.5 °F -7.6 °F 72% 30.23 in 10.0 mi South 16.1 mph - N/A   Overcast
6:35 AM 1.4 °F -17.6 °F -7.6 °F 66% 30.21 in 10.0 mi South 15.0 mph 23.0 mph N/A   Overcast
6:55 AM 3.2 °F -17.6 °F -5.8 °F 66% 30.18 in 10.0 mi South 19.6 mph - N/A   Overcast
7:15 AM 3.2 °F -17.6 °F -5.8 °F 66% 30.17 in 10.0 mi South 19.6 mph - N/A   Overcast
7:35 AM 5.0 °F -13.0 °F -4.0 °F 66% 30.17 in 10.0 mi South 15.0 mph 23.0 mph N/A   Overcast
7:55 AM 5.0 °F -12.3 °F -4.0 °F 66% 30.16 in 10.0 mi SSE 13.8 mph 20.7 mph N/A   Overcast
8:15 AM 5.0 °F -13.0 °F -4.0 °F 66% 30.14 in 10.0 mi SSE 15.0 mph - N/A   Scattered Clouds
8:35 AM 5.0 °F -14.2 °F -4.0 °F 66% 30.14 in 10.0 mi South 17.3 mph - N/A   Partly Cloudy
8:55 AM 6.8 °F -11.3 °F -4.0 °F 61% 30.13 in 10.0 mi South 16.1 mph 23.0 mph N/A   Partly Cloudy
9:15 AM 8.6 °F -10.0 °F -2.2 °F 62% 30.11 in 10.0 mi South 18.4 mph 25.3 mph N/A   Clear
9:35 AM 8.6 °F -10.0 °F -0.4 °F 67% 30.10 in 10.0 mi South 18.4 mph 26.5 mph N/A   Clear
9:55 AM 10.4 °F -7.7 °F 1.4 °F 67% 30.08 in 10.0 mi South 18.4 mph 26.5 mph N/A   Clear
10:15 AM 12.2 °F -6.3 °F 3.2 °F 67% 30.07 in 10.0 mi South 20.7 mph 26.5 mph N/A   Clear
10:35 AM 14.0 °F -3.9 °F 5.0 °F 67% 30.07 in 10.0 mi South 20.7 mph 26.5 mph N/A   Clear
10:55 AM 15.8 °F -2.3 °F 6.8 °F 68% 30.05 in 10.0 mi South 23.0 mph 29.9 mph N/A   Clear
11:15 AM 15.8 °F -3.7 °F 8.6 °F 73% 30.01 in 9.0 mi South 27.6 mph 36.8 mph N/A   Clear
11:35 AM 17.6 °F -1.6 °F 8.6 °F 68% 29.99 in 9.0 mi South 28.8 mph 38.0 mph N/A   Clear
11:55 AM 19.4 °F 1.8 °F 10.4 °F 68% 29.98 in 10.0 mi South 25.3 mph 35.7 mph N/A   Clear
12:15 PM 19.4 °F 0.8 °F 12.2 °F 74% 29.94 in 10.0 mi South 28.8 mph 35.7 mph N/A   Clear
12:35 PM 21.2 °F 3.9 °F 12.2 °F 68% 29.92 in 10.0 mi South 26.5 mph 35.7 mph N/A   Clear
12:55 PM 23.0 °F 5.4 °F 14.0 °F 68% 29.90 in 10.0 mi South 29.9 mph 35.7 mph N/A   Clear
1:15 PM 23.0 °F 6.3 °F 14.0 °F 68% 29.88 in 10.0 mi South 26.5 mph 34.5 mph N/A   Clear
1:35 PM 24.8 °F 9.0 °F 15.8 °F 69% 29.86 in 10.0 mi South 25.3 mph - N/A   Clear
1:55 PM 26.6 °F 11.4 °F 17.6 °F 69% 29.84 in 10.0 mi South 25.3 mph - N/A   Clear
2:15 PM 26.6 °F 12.4 °F 17.6 °F 69% 29.81 in 10.0 mi South 21.9 mph 32.2 mph N/A   Clear
2:35 PM 26.6 °F 10.6 °F 17.6 °F 69% 29.80 in 10.0 mi South 28.8 mph 35.7 mph N/A   Clear
2:55 PM 28.4 °F 13.8 °F 17.6 °F 64% 29.78 in 10.0 mi South 25.3 mph 32.2 mph N/A   Clear
3:15 PM 28.4 °F 14.4 °F 19.4 °F 69% 29.77 in 10.0 mi South 23.0 mph 32.2 mph N/A   Clear
3:35 PM 28.4 °F 14.1 °F 19.4 °F 69% 29.75 in 10.0 mi South 24.2 mph 33.4 mph N/A   Clear
3:55 PM 28.4 °F 13.0 °F 19.4 °F 69% 29.74 in 10.0 mi South 28.8 mph - N/A   Clear
4:15 PM 28.4 °F 14.4 °F 19.4 °F 69% 29.74 in 10.0 mi South 23.0 mph 33.4 mph N/A   Clear
4:35 PM 28.4 °F 13.5 °F 19.4 °F 69% 29.73 in 10.0 mi South 26.5 mph 32.2 mph N/A   Clear
4:55 PM 28.4 °F 14.1 °F 19.4 °F 69% 29.72 in 10.0 mi South 24.2 mph - N/A   Clear
5:15 PM 28.4 °F 14.4 °F 19.4 °F 69% 29.72 in 10.0 mi South 23.0 mph - N/A   Clear
5:35 PM 28.4 °F 14.1 °F 19.4 °F 69% 29.71 in 10.0 mi South 24.2 mph - N/A   Clear
5:55 PM 28.4 °F 14.7 °F 19.4 °F 69% 29.71 in 10.0 mi South 21.9 mph 29.9 mph N/A   Clear
6:15 PM 28.4 °F 14.4 °F 19.4 °F 69% 29.71 in 10.0 mi South 23.0 mph - N/A   Clear
6:35 PM 28.4 °F 14.7 °F 21.2 °F 74% 29.71 in 10.0 mi South 21.9 mph 29.9 mph N/A   Clear
6:55 PM 28.4 °F 15.1 °F 21.2 °F 74% 29.71 in 10.0 mi South 20.7 mph 27.6 mph N/A   Clear
7:15 PM 28.4 °F 15.1 °F 21.2 °F 74% 29.70 in 10.0 mi South 20.7 mph 28.8 mph N/A   Clear
7:35 PM 28.4 °F 14.7 °F 21.2 °F 74% 29.69 in 10.0 mi South 21.9 mph - N/A   Clear
7:55 PM 28.4 °F 14.1 °F 21.2 °F 74% 29.69 in 10.0 mi South 24.2 mph 31.1 mph N/A   Clear
8:15 PM 28.4 °F 14.1 °F 21.2 °F 74% 29.68 in 10.0 mi South 24.2 mph 29.9 mph N/A   Clear
8:35 PM 28.4 °F 13.8 °F 21.2 °F 74% 29.66 in 10.0 mi South 25.3 mph - N/A   Clear
8:55 PM 28.4 °F 14.1 °F 21.2 °F 74% 29.66 in 10.0 mi South 24.2 mph - N/A   Clear
9:15 PM 28.4 °F 15.4 °F 21.2 °F 74% 29.66 in 10.0 mi South 19.6 mph 26.5 mph N/A   Clear
9:35 PM 28.4 °F 15.1 °F 21.2 °F 74% 29.65 in 10.0 mi South 20.7 mph 26.5 mph N/A   Clear
9:55 PM 28.4 °F 15.8 °F 21.2 °F 74% 29.65 in 10.0 mi South 18.4 mph - N/A   Clear
10:15 PM 28.4 °F 16.2 °F 21.2 °F 74% 29.64 in 10.0 mi South 17.3 mph - N/A   Clear
10:35 PM 28.4 °F 16.2 °F 21.2 °F 74% 29.64 in 10.0 mi South 17.3 mph - N/A   Clear
10:55 PM 30.2 °F 16.8 °F 21.2 °F 69% 29.64 in 10.0 mi SSW 23.0 mph 29.9 mph N/A   Clear
11:15 PM 32.0 °F 19.5 °F 23.0 °F 69% 29.63 in 10.0 mi South 21.9 mph 31.1 mph N/A   Clear
11:35 PM 32.0 °F 19.5 °F 23.0 °F 69% 29.64 in 10.0 mi SSW 21.9 mph 27.6 mph N/A   Clear
11:55 PM 32.0 °F 20.5 °F 21.2 °F 64% 29.66 in 10.0 mi SSW 18.4 mph - N/A   Clear